This is the latest recevied weather packets stored in our database for station/object K5KHP. If no packets are shown the sender has not sent any weather packets the latest 10 day(s).
| Time | Temp. | Humidity | Pressure | Rain* | Wind** | Luminosity | Snow |
|---|---|---|---|---|---|---|---|
| 1777834035 | 17.22° C | 74% | 1014.2 hPa | 0 mm | - | 249 W/m² | - |
| 1777833731 | 17.78° C | 73% | 1014 hPa | 0 mm | - | 235 W/m² | - |
| 1777833428 | 17.22° C | 75% | 1013.8 hPa | 0 mm | - | 236 W/m² | - |
| 1777833125 | 16.67° C | 75% | 1014.1 hPa | 0 mm | - | 232 W/m² | - |
| 1777832823 | 17.22° C | 76% | 1013.9 hPa | 0 mm | - | 210 W/m² | - |
| 1777832522 | 17.22° C | 75% | 1013.8 hPa | 0 mm | - | 195 W/m² | - |
| 1777832218 | 16.67° C | 74% | 1014 hPa | 0 mm | - | 178 W/m² | - |
| 1777831915 | 16.67° C | 75% | 1013.9 hPa | 0 mm | - | 192 W/m² | - |
| 1777831611 | 17.22° C | 74% | 1014 hPa | 0 mm | - | 214 W/m² | - |
| 1777831310 | 17.22° C | 73% | 1014.1 hPa | 0 mm | - | 164 W/m² | - |
| 1777831007 | 17.22° C | 71% | 1013.9 hPa | 0 mm | - | 169 W/m² | - |
| 1777830704 | 17.22° C | 72% | 1013.9 hPa | 0 mm | - | 141 W/m² | - |
| 1777830400 | 17.22° C | 73% | 1013.9 hPa | 0 mm | - | 133 W/m² | - |
| 1777830092 | 17.22° C | 71% | 1013.9 hPa | 0 mm | - | 151 W/m² | - |
| 1777829787 | 17.22° C | 72% | 1014 hPa | 0 mm | - | 190 W/m² | - |
| 1777829484 | 17.22° C | 73% | 1014 hPa | 0 mm | - | 199 W/m² | - |
| 1777829180 | 17.22° C | 73% | 1013.8 hPa | 0 mm | - | 189 W/m² | - |
| 1777828878 | 16.67° C | 73% | 1013.8 hPa | 0 mm | - | 200 W/m² | - |
| 1777828574 | 16.67° C | 73% | 1013.8 hPa | 0 mm | - | 220 W/m² | - |
| 1777828271 | 16.67° C | 72% | 1013.9 hPa | 0 mm | - | 220 W/m² | - |
| 1777827968 | 17.22° C | 73% | 1013.9 hPa | 0 mm | - | 240 W/m² | - |
| 1777827665 | 16.67° C | 75% | 1014 hPa | 0 mm | - | 242 W/m² | - |
| 1777827362 | 16.11° C | 75% | 1013.8 hPa | 0 mm | - | 212 W/m² | - |
| 1777827058 | 16.67° C | 74% | 1013.9 hPa | 0 mm | - | 220 W/m² | - |
| 1777826755 | 16.11° C | 75% | 1013.9 hPa | 0 mm | - | 250 W/m² | - |
* Rain latest hour (hover to see other rain measurements)
** Current wind speed in m/s (hover to see current wind gust speed)